This demonstration page uses our WeatherBlox Daily Observations layout. Learn more.

Left ArrowRight Arrow

38.20091, -84.87328

Hourly Observations for August 11, 2022

Temp ( °F °C ) Dew Point ( °F °C ) Humidity (%) Winds ( mph kmh ) Pressure ( in mb ) Visibility ( mi km ) Precip ( " mm )
12:49 am 00:49 Cloudy 73 23 72 22 94 94 Calm 30.07 1018 10 16 0.00 0.00
12:53 am 00:53 Cloudy 74 23.3 72 22.2 94 94 Calm 30.08 1019 10 16 0.00 0.00
1:35 am 01:35 Cloudy 74 23.3 72 22.2 94 94 Calm 30.08 1019 10 16 0.00 0.00
1:53 am 01:53 Cloudy 74 23.3 72 22.2 94 94 Calm 30.08 1019 10 16 0.00 0.00
2:53 am 02:53 Cloudy 74 23.3 72 22.2 94 94 Calm 30.07 1018 10 16 0.00 0.00
4:47 am 04:47 Mostly Cloudy with Mist and Fog 72 22 70 21 94 94 NNW 3 6 30.08 1018 3 4 0.00 0.00
4:53 am 04:53 Cloudy with Mist and Fog 72 22.2 70 21.1 93 93 NNW 3 6 30.07 1018 1 2 0.00 0.00
5:00 am 05:00 Mostly Cloudy with Mist and Fog 72 22.2 70 21.1 93 93 Calm 30.06 1018 3 4 0.00 0.00
5:07 am 05:07 Partly Cloudy 71 21.7 70 21.1 96 96 NNW 3 6 30.06 1018 9 14 0.00 0.00
5:21 am 05:21 Partly Cloudy with Mist and Fog 71 21.7 70 21.1 96 96 NNW 3 6 30.06 1018 2 3 0.00 0.00
5:39 am 05:39 Cloudy with Mist and Fog 71 21.7 70 21.1 96 96 NNW 3 6 30.06 1018 3 5 0.00 0.00
5:53 am 05:53 Mostly Cloudy with Mist and Fog 70 21.1 69 20.6 97 97 NNW 3 6 30.07 1018 5 8 0.00 0.00
6:53 am 06:53 Sunny 69 20.6 68 20 96 96 N 3 6 30.07 1018 10 16 0.00 0.00
7:53 am 07:53 Sunny 70 21.1 67 19.4 90 90 N 3 6 30.09 1019 10 16 0.00 0.00
8:53 am 08:53 Sunny 72 22.2 66 18.9 82 82 NNE 3 6 30.09 1019 10 16 0.00 0.00
9:53 am 09:53 Sunny 76 24.4 65 18.3 69 69 N 7 11 30.10 1019 10 16 0.00 0.00
10:53 am 10:53 Mostly Sunny 78 25.6 63 17.2 60 60 NNE 6 9 30.11 1020 10 16 0.00 0.00
11:53 am 11:53 Mostly Sunny 79 26.1 63 17.2 58 58 VRB 7 11 30.10 1019 10 16 0.00 0.00
12:53 pm 12:53 Mostly Sunny 81 27.2 64 17.8 57 57 undefined N/A 30.09 1019 10 16 0.00 0.00
1:53 pm 13:53 Sunny 82 27.8 65 18.3 56 56 Calm 30.08 1019 10 16 0.00 0.00
2:53 pm 14:53 Sunny 83 28.3 65 18.3 55 55 VRB 3 6 30.06 1018 10 16 0.00 0.00
3:53 pm 15:53 Sunny 83 28.3 64 17.8 53 53 VRB 6 9 30.04 1017 10 16 0.00 0.00
4:53 pm 16:53 Sunny 85 29.4 64 17.8 50 50 N 6 9 30.03 1017 10 16 0.00 0.00
5:53 pm 17:53 Mostly Sunny 84 28.9 64 17.8 51 51 NNW 5 7 30.02 1017 10 16 0.00 0.00
6:53 pm 18:53 Mostly Sunny 84 28.9 65 18.3 53 53 NNW 5 7 30.02 1017 10 16 0.00 0.00
7:53 pm 19:53 Sunny 81 27.2 66 18.9 61 61 NW 5 7 30.03 1017 10 16 0.00 0.00
8:53 pm 20:53 Clear 75 23.9 68 20 79 79 Calm 30.03 1017 10 16 0.00 0.00
9:53 pm 21:53 Clear 74 23.3 68 20 82 82 Calm 30.04 1017 10 16 0.00 0.00
10:53 pm 22:53 Mostly Clear 73 22.8 69 20.6 87 87 NNW 3 6 30.05 1018 10 16 0.00 0.00
11:53 pm 23:53 Clear 74 23.3 68 20 82 82 N 6 9 30.06 1018 10 16 0.00 0.00

Powered by AerisWeather